Location: Barruelo
(41.2448°N, 3.8231°W)
Time: 05:10:00
(UTC+00:00)

IRIDIUM 106 - Pass Details

Date: 11 December 2025
Orbit: 776 x 779 km, 86.4° (Epoch: 13 January)

Event Time Altitude Azimuth Distance (km) Brightness Sun altitude
Rises 17:14:48 0° 2° (N) 3,269 7.3 -5.6°
Reaches altitude 10° 17:17:14 10° 7° (N) 2,336 6.5 -6.0°
Maximum altitude 17:22:20 52° 84° (E) 960 4.5 -6.8°
Drops below altitude 10° 17:27:23 10° 161° (SSE) 2,318 6.9 -7.7°
Sets 17:29:47 0° 166° (SSE) 3,241 7.7 -8.1°
